www.pogodaiklimat.ru

Погода и климат >> Архив погоды >> Южная Африка >> Vredendal


ПОГОДА в Vredendal

  • Прогноз погоды в Vredendal
  • Монитор погоды в Vredendal
  • Климат города

АРХИВ ПОГОДЫ в Vredendal

Время (UTC), дата Ветер
(напр.,м/с)
 
Видим.   Явления Облачность Т
(С)
Тd
(С)
f
(%)
Тe
(С)
Тes
(С)
Комфортность P
(гПа)
Po
(гПа)
Тmin
(С)
Tmax
(С)
R
(мм)
R24
(мм)
S
(см)
12 11.12 З 5 30 км ясно +28.1 +9.6 31 +28 +38 жарко 1010.3 1005.6 +12.7 +32.2
15 11.12 З 3 н/о н/о +26.8 +8.0 30 +27 +27 жарко 1010.7 1005.9 +26.4 +32.2
18 11.12 СЗ 3 30 км ясно +17.5 +11.8 69 +18 +18 1012.1 1007.2 +17.5 +32.2
21 11.12 СЗ 2 н/о н/о +15.0 +12.1 83 +15 +15 1013.9 1008.9 +15.0 +32.2
00 12.12 С 1 н/о н/о +13.6 +11.8 89 +14 +14 1013.0 1008.0 +13.6 +32.2
03 12.12 ЮЗ 1 н/о н/о +12.1 +10.6 91 +12 +12 1013.4 1008.4 +11.8 +32.2
06 12.12 З 1 30 км 5/5 600 м
[Sc diur, vesp]
+17.8 +11.8 68 +19 +22 1015.7 1010.8 +11.8
09 12.12 З 1 н/о н/о +24.6 +10.6 41 +26 +26 жарко 1014.5 1009.7 +11.8 +24.6
12 12.12 ЮЗ 5 30 км ясно +26.6 +9.2 33 +27 +37 жарко 1013.2 1008.4 +11.8 +27.4
15 12.12 ЮЗ 8 н/о н/о +23.3 +8.3 38 +24 +24 комфорт 1011.5 1006.7 +23.0 +27.4
18 12.12 ЮЗ 6 30 км ясно +17.7 +9.6 59 +17 +17 1012.8 1007.9 +17.7 +27.4
21 12.12 СЗ 1 н/о н/о +15.4 +10.6 73 +16 +16 1014.9 1009.9 +15.4 +27.4
00 13.12 ЮЗ 4 н/о н/о +14.1 +9.7 75 +13 +13 1014.6 1009.6 +14.0 +27.4
03 13.12 ЮЗ 2 н/о н/о +13.1 +9.5 79 +12 +12 1015.2 1010.2 +12.8 +27.4
06 13.12 ЮЗ 3 30 км 1/0
[Ci fib]
+18.7 +9.0 53 +19 +23 1016.6 1011.7 +12.8
09 13.12 З 5 н/о н/о +22.1 +10.4 47 +24 +24 комфорт 1017.1 1012.2 +12.8 +22.4
12 13.12 ЮЗ 5 30 км 1/1 600 м
[Sc]
+23.2 +10.1 43 +25 +34 комфорт 1016.4 1011.5 +12.8 +23.5
15 13.12 ЮЗ 7 н/о н/о +21.7 +10.6 49 +23 +23 комфорт 1016.5 1011.6 +21.4 +23.7
18 13.12 ЮЗ 5 30 км 4/4 600 м
[Sc]
+17.9 +12.4 70 +17 +17 1018.3 1013.3 +17.9 +23.7
21 13.12 З 2 н/о н/о +16.8 +13.7 82 +17 +17 1019.3 1014.3 +16.8 +23.7
00 14.12 Ю 2 н/о н/о +17.0 +13.9 82 +18 +18 1018.5 1013.5 +16.7 +23.7
03 14.12 ЮЗ 1 н/о н/о +15.8 +13.3 85 +16 +16 1018.5 1013.5 +15.8 +23.7
06 14.12 ЮВ 1 30 км 1/1 600 м
[Sc]
+20.2 +13.2 64 +23 +28 комфорт 1018.9 1014.0 +15.4
09 14.12 Ю 2 н/о н/о +24.6 +12.0 45 +26 +26 жарко 1018.1 1013.3 +15.4 +25.4
12 14.12 ЮЗ 4 30 км 1/1 600 м
[Cu hum]
+28.0 +13.0 40 +30 +42 жарко 1015.8 1011.0 +15.4 +28.6
15 14.12 ЮЗ 6 н/о н/о +26.5 +8.7 32 +27 +27 жарко 1014.4 1009.6 +25.8 +28.6
18 14.12 ЮЗ 5 30 км 1/0
[Ci fib]
+20.8 +7.5 42 +22 +22 комфорт 1015.0 1010.1 +20.8 +28.6
21 14.12 ЮЗ 2 н/о н/о +19.7 +8.2 47 +21 +21 комфорт 1015.5 1010.6 +19.5 +28.6
00 15.12 С 1 н/о н/о +15.2 +9.1 67 +16 +16 1015.2 1010.2 +15.2 +28.6
03 15.12 штиль 0 н/о н/о +12.3 +9.7 84 +12 +12 1014.5 1009.5 +12.3 +28.6
06 15.12 В 1 н/о н/о +19.2 +11.1 59 +21 +21 комфорт 1015.0 1010.1 +11.5
09 15.12 Ю 1 н/о н/о +31.2 +7.3 22 +30 +30 жарко 1012.7 1008.0 +11.5 +31.2
12 15.12 ЮЗ 4 н/о н/о +36.9 +8.3 18 +35 +35 очень
жарко
1009.6 1005.0 +11.5 +37.9
15 15.12 ЮЗ 5 н/о н/о +32.2 +6.8 21 +31 +31 жарко 1008.3 1003.6 +32.1 +37.9
18 15.12 СВ 1 30 км 1/0 2000 м
[Ci sp]
+25.1 +7.0 31 +25 +25 комфорт 1010.3 1005.5 +25.1 +37.9
21 15.12 СЗ 2 н/о н/о +17.4 +12.1 71 +18 +18 1011.0 1006.1 +17.4 +37.9
00 16.12 СЗ 2 н/о н/о +14.9 +12.9 88 +15 +15 1011.1 1006.1 +14.9 +37.9
03 16.12 СЗ 1 н/о н/о +14.6 +12.8 89 +15 +15 1012.4 1007.4 +14.2 +37.9
06 16.12 С 1 30 км 10/10 200 м
[Frnb]
+16.9 +13.2 79 +18 +18 1013.9 1008.9 +14.2
09 16.12 С 2 н/о н/о +21.6 +13.8 61 +24 +24 комфорт 1013.4 1008.5 +14.2 +22.8
12 16.12 З 2 30 км 1/0
[Ci sp]
+29.1 +13.2 38 +31 +50 жарко 1011.0 1006.3 +14.2 +29.3
15 16.12 ЮЗ 6 н/о н/о +27.2 +10.6 35 +28 +28 жарко 1010.2 1005.4 +27.2 +29.9
18 16.12 З 3 30 км 1/0 2000 м
[Ac cast]
+21.5 +12.4 56 +24 +24 комфорт 1011.4 1006.5 +21.5 +29.9
21 16.12 СЗ 3 н/о н/о +16.8 +12.9 78 +17 +17 1012.7 1007.8 +16.8 +29.9
00 17.12 СЗ 2 н/о н/о +15.0 +13.2 89 +15 +15 1012.6 1007.6 +14.9 +29.9
03 17.12 С 1 н/о н/о +16.7 +13.6 82 +18 +18 1012.9 1007.9 +14.9 +29.9
06 17.12 СЗ 3 20 км 10/10 600 м
[Sc]
+16.8 +13.7 82 +17 +17 1014.1 1009.1 +14.9
09 17.12 СЗ 3 н/о н/о +24.9 +14.2 51 +27 +27 жарко 1013.2 1008.4 +14.9 +24.9
12 17.12 З 4 н/о н/о +27.4 +13.2 42 +29 +29 жарко 1011.7 1006.9 +14.9 +29.1
15 17.12 З 4 н/о н/о +23.9 +13.3 51 +26 +26 жарко 1011.5 1006.7 +23.8 +29.1
18 17.12 СЗ 3 30 км ясно +17.1 +12.8 76 +17 +17 1013.1 1008.2 +17.1 +29.1
21 17.12 СЗ 2 н/о н/о +15.3 +13.0 86 +15 +15 1015.5 1010.5 +15.1 +29.1
00 18.12 С 2 н/о н/о +15.7 +13.0 84 +16 +16 1015.5 1010.5 +15.1 +29.1
03 18.12 СЗ 1 н/о н/о +15.8 +12.7 82 +16 +16 1015.8 1010.8 +15.1 +29.1
06 18.12 З 1 10 км 10/10 600 м
[Sc]
+17.2 +13.1 77 +18 +18 1017.4 1012.4 +15.1
09 18.12 С 2 н/о н/о +24.5 +13.8 51 +27 +27 жарко 1016.7 1011.9 +15.1 +24.6

 

Местоположение метеостанции Vredendal (Южная Африка): широта -31.66 долгота 18.50 высота над уровнем моря 33 м.

В архиве по умолчанию представлена погода в Vredendal за последнюю неделю. Архивные данные за месяц целиком и за предыдущие месяцы, начиная с января 2011 года, Вы можете получить, выбрав интересующий диапазон дат из раскрывающегося списка и нажав кнопку "Ввод!".

Внимание! Время в таблицах - всемирное. Для получения местного времени необходимо прибавить поправку, которая в Vredendal равна 2 ч.

Смотрите также архив погоды в соседних городах и на ближайших метеорологических станциях:

Погода в Lamberts Bay (Южная Африка) (44 км)
Погода в Nieuwoudtville (Южная Африка) (66 км)
Погода в Clanwilliam (Южная Африка) (69 км)
Погода в Calvinia (Южная Африка) (122 км)
Погода в Cape Columbine (Южная Африка) (144 км)
Погода в Langebaanweg (Южная Африка) (148 км)
Погода в Langebaan (Южная Африка) (164 км)
Погода в Excelsior Ceres (Южная Африка) (169 км)
Погода в Geelbek (Южная Африка) (175 км)
Погода в Porterville (Южная Африка) (189 км)

Пояснения к столбцам:

Ветер - указаны скорость ветра в м/с - средняя за 10 мин, порывы в срок и между сроками (в фигурных скобках) и направление, откуда дует ветер: С - северный, СВ - северо-восточный, В - восточный, ЮВ - юго-восточный, Ю - южный, ЮЗ - юго-западный, З - западный, СЗ - северо-западный.
Видимость - горизонтальная дальность видимости в метрах или километрах. При видимости от 1 до 10 км при отсутствии осадков обычно наблюдается дымка, при ухудшении видимости до 1 км и менее - туман. В сухую погоду видимость может ухудшаться дымом, пылью или мглою.
Явления - указаны атмосферные явления, наблюдавшиеся в срок или в последний час перед сроком; фигурными скобками обозначены явления, наблюдавшиеся между сроками (за 1-3 часа до срока); квадратными скобками обозначены град или гололедные отложения с указанием их диаметра в мм.
Облачность - указаны через наклонную черту общая и нижняя облачность в баллах и высота нижней границы облаков в метрах; квадратными скобками обозначены формы облаков: Ci - перистые, Cs - перисто-слоистые, Cc - перисто-кучевые, Ac - высококучевые, As - высокослоистые, Sc - слоисто-кучевые, Ns - слоисто-дождевые, Cu - кучевые, Cb - кучево-дождевые. Подробнее классификацию облаков см. в Атласе облаков (PDF).
T - Температура воздуха - температура, измеренная на высоте 2 м над землей.
Td - Температура точки росы - температура, при понижении до которой содержащийся в воздухе водяной пар достигнет насыщения.
f - Относительная влажность воздуха - влажноcть воздуха, измеренная на высоте 2 м над землей.
Te - Эффективная температура - температура, которую ощущает одетый по сезону человек в тени. Характеристика душности погоды. При расчете учитывается влияние влажности воздуха и скорости ветра на теплоощущения человека.
Tes - Эффективная температура на солнце - температура, которую ощущает человек, с поправкой на солнечный нагрев. Характеристика знойности погоды. Зависит от высоты солнца над горизонтом, облачности и скорости ветра. Ночью, в пасмурную погоду, а также при ветре 12 м/с и более поправка равна нулю.
P - Атмосферное давление - приведенное к уровню моря атмосферное давление.
Po - Атмосферное давление - измеренное на уровне метеостанции атмосферное давление.
Tmin - Минимальная температура - минимум температуры воздуха на высоте 2 м над землей.
Tmax - Максимальная температура - максимум температуры воздуха на высоте 2 м над землей.
R - Количество осадков - Количество выпавших осадков за период времени, мм. При наведении курсора мыши на число - период времени, за который выпало указанное количество осадков.
R24 - Количество осадков - Количество выпавших осадков за 24 часа, мм.
S - Снежный покров - Высота снежного покрова, см. При наведении курсора мыши на число - состояние снежного покрова и степень покрытия местности в баллах.